Regional Weather Roundup
Issued by NWS

Home | Current Version | Previous Version | Graphics & Text | Print | Product List | Glossary On
Versions: 1 2 3 4 5 6 7 8 9 10 11 12 13 14 15 16 17 18 19 20 21 22 23 24 25 26 27 28 29 30 31 32 33 34 35 36 37 38 39 40 41 42 43 44 45 46 47 48 49 50
000
ASUS45 KCYS 121510
RWRWY

WYOMING REGIONAL WEATHER ROUNDUP
NATIONAL WEATHER SERVICE CHEYENNE WY
900 AM MDT SAT JUL 12 2014

NOTE:  "FAIR" INDICATES FEW OR NO CLOUDS BELOW 12,000 FEET
WITH NO SIGNIFICANT WEATHER AND/OR OBSTRUCTIONS TO VISIBILITY.

WYZ001-121600-
YELLOWSTONE NATIONAL PARK

CITY           SKY/WX    TMP DP  RH WIND       PRES   REMARKS
LK YELLOWSTONE   N/A     55  49  80 CALM      30.49R
W YELLOWSTONE  NOT AVBL

$$
WYZ002>013-054>058-071-098>099-121600-
NORTHERN WYOMING

CITY           SKY/WX    TMP DP  RH WIND       PRES   REMARKS
JACKSON        NOT AVBL
CODY           PTSUNNY   64  54  68 SW9       30.29S
GREYBULL       MOSUNNY   75  53  46 VRB5      30.21R
WORLAND        SUNNY     70  55  59 W3        30.24R
SHERIDAN       MOSUNNY   67  55  65 NW7       30.23R
BUFFALO        MOSUNNY   68  53  58 N20       30.27R
GILLETTE       MOSUNNY   70  57  63 SW3       30.22R
HULETT         FAIR      70  59  68 MISG      30.21
NEWCASTLE      FAIR      68  55  64 CALM      30.22

$$
WYZ014>020-022>026-101>103-121600-
CENTRAL WYOMING

CITY           SKY/WX    TMP DP  RH WIND       PRES   REMARKS
BIG PINEY      SUNNY     65  47  52 VRB3      30.41R
PINEDALE       SUNNY     63  50  63 NW9       30.42R
DUBOIS         FAIR      61  48  63 NW8       30.39S
LANDER         SUNNY     67  56  67 N5        30.31R
RIVERTON       SUNNY     67  55  65 VRB3      30.31R
CASPER         SUNNY     71  55  56 VRB6      30.27R
DOUGLAS        CLOUDY    66  57  72 SW7       30.27R

$$
WYZ021-027>030-104>119-121600-
SOUTHERN WYOMING

CITY           SKY/WX    TMP DP  RH WIND       PRES   REMARKS
EVANSTON       SUNNY     62  54  74 E6        30.40R
KEMMERER       SUNNY     64  50  59 N3        30.42R
FORT BRIDGER   FAIR      64  53  66 E5        30.42S
ROCK SPRINGS   CLOUDY    63  53  70 SW3       30.37S
DIXON          PTSUNNY   65  56  73 CALM      30.38S
RAWLINS        MOSUNNY   67  54  63 VRB3      30.36R
SARATOGA       FAIR      63  54  72 SE3       30.39R
LARAMIE        PTSUNNY   60  54  80 N10       30.37R
CHEYENNE       MOSUNNY   67  58  72 N7        30.31R
TORRINGTON     CLOUDY    66  60  81 E3        30.21R

$$


USA.gov is the U.S. government's official web portal to all federal, state and local government web resources and services.